Location: Contrada Ronchiel
(45.2167°N, 11.1667°E)
Time: 19:57:57
(UTC+00:00)

Daily predictions for brighter satellites

Satellite Brightness Start Highest point End
(mag) Time Altitude Azimuth Time Altitude Azimuth Time Altitude Azimuth
NOAA 6 4.4 16:02:56 10° S 16:08:05 73° WSW 16:13:16 10° NNW
Cosmos 1633 3.6 16:06:46 10° NNE 16:09:54 26° ENE 16:12:58 10° SE
Cosmos 2263 Rocket 3.7 16:14:55 10° N 16:18:12 16° NE 16:21:28 10° ENE
Cosmos 1689 Rocket 3.9 16:15:57 10° N 16:18:44 33° WNW 16:21:31 10° SW
Cosmos 1869 3.2 16:18:15 10° S 16:22:10 69° E 16:26:05 10° NNE
Cosmos 1680 Rocket 4.1 16:19:57 10° SSE 16:24:39 36° ESE 16:29:24 10° NE
ATLAS 5 CENTAUR R/B 3.0 16:18:55 10° NW 16:24:43 66° WSW 16:31:20 10° SSE
H-2A R/B 2.9 16:21:23 10° SSE 16:25:05 48° ENE 16:28:46 10° N
YAOGAN 1 4.1 16:24:21 10° E 16:26:53 15° ENE 16:29:26 10° NNE
Cosmos 2369 3.9 16:21:27 10° S 16:26:54 52° ESE 16:32:26 10° NE
Cosmos 2344 4.4 16:20:11 10° WSW 16:27:23 46° NW 16:35:33 10° NE
Cosmos 1697 Rocket 2.9 16:28:16 10° S 16:33:45 55° ESE 16:39:16 10° NNE
Cosmos 2082 3.6 16:28:19 10° NNW 16:33:58 75° ENE 16:39:35 10° SSE
APEX 4.1 16:34:27 10° SSE 16:37:11 22° ESE 16:38:45 15° ENE
CZ-4B R/B 4.3 16:35:59 10° NNW 16:37:55 14° WNW 16:39:51 10° W
Cosmos 1238 Rocket 4.3 16:35:42 10° NNW 16:39:24 36° W 16:42:32 10° SSW
Cosmos 2278 3.9 16:39:27 10° S 16:44:58 54° ESE 16:50:31 10° NE
Cosmos 1656 3.9 16:41:41 10° SSW 16:47:13 70° WNW 16:52:42 10° NNE
Cosmos 1356 Rocket 3.7 16:43:15 10° SSW 16:47:25 73° W 16:51:42 10° N
YAOGAN 6 3.4 16:44:59 10° SE 16:47:57 26° ENE 16:50:56 10° NNE
SKYMED 2 4.3 16:46:31 10° NNE 16:50:26 32° E 16:54:20 10° SSE
USA 215 4.2 16:45:59 13° ENE 16:50:51 33° N 16:56:31 10° NW
Cosmos 923 Rocket 3.9 16:45:40 10° SSW 16:50:53 79° ESE 16:56:06 10° NNE
Cosmos 1513 Rocket 4.5 16:44:39 10° N 16:51:06 74° E 16:57:24 10° SSE
Cosmos 1805 Rocket 4.5 16:50:16 10° NNW 16:54:31 52° W 16:58:47 10° S
Cosmos 1624 Rocket 4.3 16:50:13 10° N 16:55:21 44° ENE 17:00:25 10° SE
Cosmos 2056 Rocket 3.8 16:51:30 10° N 16:56:24 42° ENE 17:01:19 10° SE
NOSS 2-3 (E) 3.7 16:55:22 10° SSW 16:59:42 83° SE 17:03:59 15° NE
Cosmos 2034 Rocket 4.0 16:55:13 10° N 17:01:35 66° E 17:07:54 10° SSE
CZ-4 R/B 1.8 16:57:56 10° SE 17:01:46 38° ENE 17:05:32 10° N
USA 229 DEB 4.4 16:56:39 10° WSW 17:03:03 50° NW 17:09:48 10° NNE
USA 229 4.3 16:56:45 10° WSW 17:03:09 51° NW 17:09:53 10° NNE
Cosmos 724 4.2 16:57:17 10° NNW 17:03:10 81° NE 17:08:57 10° SE
BREEZE-M DEB (TANK) 2.8 17:00:10 10° WNW 17:03:16 34° N 17:03:53 29° NE
NOSS 3-1 (C) 4.2 17:00:55 10° WSW 17:06:22 48° NW 17:12:41 10° NNE
Lacrosse 4 Rocket 2.1 17:02:28 10° SW 17:06:25 49° NW 17:10:14 11° NNE
Okean-O 2.7 17:02:20 10° SSE 17:06:47 85° WSW 17:11:15 10° NNW
SeaSat 1 2.4 17:02:36 10° SE 17:07:28 62° ENE 17:12:21 10° NNW
NOSS 3-1 (A) 3.6 17:02:34 10° SW 17:08:06 67° NW 17:14:12 12° NE
ERBS 3.8 17:05:23 10° W 17:08:19 28° NNW 17:10:09 17° NNE
NOSS 2-3 (D) 3.7 17:05:03 10° SW 17:09:23 88° WNW 17:13:16 17° NE
CSL-04 Debris 4.4 17:07:36 10° SE 17:12:50 48° ENE 17:18:06 10° N
CZ-4 R/B 4.4 17:12:21 10° SSE 17:16:25 61° ENE 17:20:32 10° N
Cosmos 1634 Rocket 4.3 17:13:03 10° N 17:18:49 39° ENE 17:24:32 10° SE
Cosmos 1933 3.7 17:15:28 10° SSE 17:19:18 41° E 17:20:31 32° NE
Cosmos 1633 Rocket 3.5 17:16:36 10° NNW 17:20:59 65° W 17:25:20 10° S
Cosmos 1862 4.1 17:18:21 10° NNW 17:22:14 53° W 17:26:07 10° S
Envisat 3.1 17:17:19 10° S 17:22:23 80° WSW 17:27:31 10° NNW
Cosmos 1816 Rocket 4.5 17:17:57 10° S 17:24:14 69° E 17:30:34 10° NNE
CSL-04 Rocket 3.6 17:19:51 10° SSE 17:25:05 58° ENE 17:30:17 10° N
Cosmos 1606 3.5 17:21:38 10° SSE 17:24:16 33° SE 17:24:16 33° SE
Cosmos 1151 Rocket 3.0 17:20:52 10° S 17:25:14 89° E 17:29:39 10° N
Cosmos 2228 Rocket 3.4 17:24:15 10° SSE 17:28:28 42° E 17:29:08 39° ENE
Tsikada Rocket 4.0 17:22:34 10° S 17:28:53 70° E 17:35:18 10° NNE
Meteor 1-20 Rocket 4.4 17:25:25 10° N 17:31:04 48° ENE 17:36:38 10° SSE
Meteor 1-25 Rocket 4.4 17:25:54 10° N 17:31:23 48° ENE 17:36:55 10° SSE
SL-8 R/B 4.2 17:27:02 10° SW 17:31:35 43° SSE 17:32:41 37° ESE
Cosmos 1328 Rocket 3.9 17:30:35 10° SSW 17:34:58 67° W 17:39:22 10° N
CENTAUR R/B 4.1 17:28:51 10° NNW 17:35:00 26° NNE 17:37:13 23° NE
Cosmos 1933 Rocket 3.4 17:32:54 10° N 17:37:15 76° E 17:41:36 10° SSE
Cosmos 1420 Rocket 4.2 17:32:44 10° N 17:37:44 45° ENE 17:38:28 42° E
COSMO-SKYMED 1 2.6 17:34:11 10° N 17:38:33 80° WNW 17:42:52 10° SSW
SL-16 R/B 3.0 17:33:59 10° SSE 17:38:07 30° ESE 17:38:07 30° ESE
Cosmos 1515 Rocket 3.4 17:34:56 10° S 17:39:19 85° E 17:42:36 18° N
Cosmos 1980 Rocket 2.2 17:34:03 10° SSW 17:39:43 83° WNW 17:43:59 19° NNE
Cosmos 158 Rocket 4.0 17:38:10 10° SSW 17:43:28 85° WNW 17:46:56 22° NNE
Cosmos 1452 Rocket 3.9 17:39:56 10° N 17:44:36 42° NE 17:44:36 42° NE
Cosmos 2322 Rocket 3.3 17:41:20 10° SSE 17:44:20 25° SE 17:44:20 25° SE
Cosmos 1371 Rocket 4.4 17:41:56 10° NNW 17:47:04 62° WSW 17:52:09 10° S
Geosat 4.4 17:44:30 18° NNE 17:48:16 62° WNW 17:53:12 10° SW
USA 116 4.2 17:48:38 18° NNE 17:52:14 90° W 17:57:27 10° SSW
GEOS 3 Rocket 4.0 17:49:26 26° NNE 17:52:21 60° NW 17:57:31 10° SW
USA 238 DEB 4.2 17:49:19 10° NNW 17:56:02 41° NE 17:56:59 39° ENE
USA 238 4.2 17:49:25 10° NNW 17:56:08 41° NE 17:57:04 39° ENE
IRS-1A Rocket 4.4 17:56:57 50° ENE 17:56:57 50° ENE 18:02:16 10° N
ATLAS 3B R/B 4.0 17:51:51 10° NNW 17:56:53 22° NNE 17:57:03 22° NNE
NOSS 3-2 (A) 4.4 17:53:15 10° NNW 18:00:09 42° NE 18:01:13 40° ENE
YAOGAN 1 3.0 17:58:15 10° S 18:02:31 60° W 18:06:49 10° NNW
Cosmos 2263 Rocket 2.0 17:57:31 10° NNW 18:03:07 76° ENE 18:04:08 59° SE
Meteor 1-14 Rocket 4.3 17:57:49 10° N 18:03:48 63° ENE 18:04:46 55° ESE
Ariane Rocket 3.5 18:06:44 44° NNE 18:06:44 44° NNE 18:10:22 10° N
COSMOS 2455 4.2 18:07:10 10° S 18:09:52 25° SSE 18:09:52 25° SSE
Cosmos 1697 Rocket 4.5 18:13:19 10° WSW 18:18:03 27° NW 18:22:23 12° N
USA 215 3.5 18:33:21 54° NNE 18:33:21 54° NNE 18:39:25 10° NW
CZ-4 R/B 4.0 18:33:54 10° SW 18:36:55 19° W 18:39:53 10° NW
NOSS 3-2 (C) 4.4 18:38:56 10° NNW 18:44:46 46° NNE 18:44:46 46° NNE
SL-16 R/B 4.0 19:17:29 10° SW 19:20:04 25° WSW 19:20:04 25° WSW
CENTAUR R/B 3.9 19:19:27 10° NW 19:24:25 41° NNW 19:24:25 41° NNW
Cosmos 2322 Rocket 4.4 19:24:42 10° SW 19:26:13 18° WSW 19:26:13 18° WSW
